EW7144 Weather Reports


time (UTC)temp
F
wind
direction
speed
knots
gust
knots
rain 1hr
in
rain 24hr
in
rain mn
in
humidity
%
barometer
mb
20260905185407 56 351 7.8 17.4 0.00 0.00 0.00 90 1011.0
20260905184406 56 348 7.0 13.0 0.00 0.00 0.00 90 1011.2
20260905183406 56 352 6.1 13.0 0.00 0.00 0.00 89 1011.2
20260905182906 56 335 5.2 10.4 0.00 0.00 0.00 89 1011.2
20260905182406 56 345 6.1 11.3 0.00 0.00 0.00 89 1011.2
20260905180906 56 345 4.3 10.4 0.00 0.00 0.00 89 1011.1
20260905180407 56 342 4.3 10.4 0.00 0.00 0.00 89 1011.0
20260905175907 56 340 3.5 13.9 0.00 0.00 0.00 89 1011.0
20260905175406 56 350 7.8 12.2 0.00 0.00 0.00 89 1011.2
20260905174406 56 340 6.1 13.9 0.00 0.00 0.00 89 1011.2
20260905173907 56 351 7.0 12.2 0.00 0.00 0.00 89 1011.2
20260905173407 56 348 7.8 11.3 0.00 0.00 0.00 89 1011.1
20260905172906 56 351 7.0 13.0 0.00 0.00 0.00 89 1011.0
20260905172406 56 340 7.8 12.2 0.00 0.00 0.00 89 1011.0
20260905171907 56 338 8.7 17.4 0.00 0.00 0.00 89 1011.0
20260905170906 56 345 7.8 15.6 0.00 0.00 0.00 89 1011.1
20260905170407 56 347 7.0 12.2 0.00 0.00 0.00 89 1011.1
20260905165906 57 339 5.2 13.9 0.00 0.00 0.00 89 1011.2
20260905165406 57 350 7.8 17.4 0.00 0.00 0.00 89 1011.2
20260905164906 56 342 7.8 13.0 0.00 0.00 0.00 89 1011.1
20260905163906 56 329 6.1 14.8 0.00 0.00 0.00 89 1011.0
20260905163406 56 345 8.7 17.4 0.00 0.00 0.00 89 1010.8
20260905162906 56 335 4.3 13.9 0.00 0.00 0.00 89 1010.7
20260905162406 55 347 4.3 12.2 0.00 0.00 0.00 89 1010.7
20260905161906 55 326 4.3 11.3 0.00 0.00 0.00 89 1010.6
20260905160907 56 330 4.3 14.8 0.00 0.00 0.00 89 1010.5
20260905160406 56 344 8.7 17.4 0.00 0.00 0.00 89 1010.4
20260905155906 56 341 10.4 17.4 0.00 0.00 0.00 89 1010.5
20260905154907 56 351 7.0 12.2 0.00 0.00 0.00 89 1010.6
20260905154406 56 343 5.2 11.3 0.00 0.00 0.00 89 1010.6
20260905153907 56 342 4.3 12.2 0.00 0.00 0.00 89 1010.7
20260905153406 56 347 6.1 12.2 0.00 0.00 0.00 89 1010.7
20260905152910 56 338 5.2 13.9 0.00 0.00 0.00 89 1010.6
20260905152407 56 285 6.1 14.8 0.00 0.00 0.00 89 1010.6
20260905151907 56 319 5.2 13.0 0.00 0.00 0.00 89 1010.6
20260905150906 56 331 3.5 12.2 0.00 0.00 0.00 89 1010.6
20260905150407 56 301 5.2 12.2 0.00 0.00 0.00 89 1010.6
20260905145907 56 317 3.5 13.0 0.00 0.00 0.00 89 1010.6
20260905145406 56 335 4.3 13.9 0.00 0.00 0.00 88 1010.6
20260905144906 56 242 4.3 12.2 0.00 0.00 0.00 88 1010.6
20260905144407 56 317 5.2 11.3 0.00 0.00 0.00 88 1010.5
20260905143907 56 318 5.2 11.3 0.00 0.00 0.00 88 1010.6
20260905143407 56 294 5.2 13.0 0.00 0.00 0.00 88 1010.8
20260905142907 56 281 6.1 12.2 0.00 0.00 0.00 88 1010.8
20260905142407 56 307 4.3 10.4 0.00 0.00 0.00 88 1010.9
20260905141906 56 321 5.2 13.0 0.00 0.00 0.00 88 1011.0
20260905141407 56 299 5.2 13.0 0.00 0.00 0.00 88 1011.0
20260905140907 56 318 4.3 13.0 0.00 0.00 0.00 88 1011.0
20260905140407 56 325 3.5 13.0 0.00 0.00 0.00 88 1011.0
20260905135906 56 307 5.2 13.9 0.00 0.00 0.00 88 1010.9
20260905135406 56 343 6.1 19.1 0.00 0.00 0.00 88 1011.1
20260905134906 56 330 6.1 13.9 0.00 0.00 0.00 88 1011.1
20260905134406 56 320 4.3 11.3 0.00 0.00 0.00 88 1011.3
20260905133906 56 335 8.7 18.2 0.00 0.00 0.00 88 1011.4
20260905132906 56 320 7.0 19.1 0.00 0.00 0.00 87 1011.7
20260905132407 56 333 8.7 15.6 0.00 0.00 0.00 87 1011.8
20260905131906 56 338 7.0 17.4 0.00 0.00 0.00 87 1011.8
20260905130907 56 346 8.7 15.6 0.00 0.00 0.00 87 1011.9
20260905130406 56 336 9.6 17.4 0.00 0.00 0.00 87 1012.0
20260905125907 56 343 7.8 22.6 0.00 0.00 0.00 87 1011.9
20260905125406 56 344 9.6 20.0 0.00 0.00 0.00 87 1011.9
20260905124906 56 350 12.2 21.7 0.00 0.00 0.00 87 1011.9
20260905124406 56 324 7.8 17.4 0.00 0.00 0.00 87 1011.9
20260905123906 56 305 6.1 20.0 0.00 0.00 0.00 87 1012.0
20260905123406 56 334 6.1 13.9 0.00 0.00 0.00 87 1012.0
20260905122906 56 287 7.0 20.0 0.00 0.00 0.00 87 1012.0
20260905122406 56 327 6.1 17.4 0.00 0.00 0.00 87 1011.9
20260905120907 56 287 7.8 20.0 0.00 0.00 0.00 87 1012.0
20260905120406 56 337 8.7 20.0 0.00 0.00 0.00 87 1012.1
20260905115908 56 303 10.4 19.1 0.00 0.00 0.00 87 1012.2
20260905115406 56 334 11.3 21.7 0.00 0.00 0.00 87 1012.1
20260905114906 56 324 8.7 21.7 0.00 0.00 0.00 87 1012.1
20260905113907 56 335 6.1 17.4 0.00 0.00 0.00 86 1012.1
20260905113406 56 247 9.6 22.6 0.00 0.00 0.00 86 1012.1
20260905112906 56 332 9.6 18.2 0.00 0.00 0.00 86 1012.3
20260905112406 56 343 7.8 17.4 0.00 0.00 0.00 86 1012.4
20260905111907 56 290 10.4 20.0 0.00 0.00 0.00 86 1012.4
20260905111406 56 322 10.4 20.9 0.00 0.00 0.00 87 1012.4
20260905110906 56 309 8.7 19.1 0.00 0.00 0.00 87 1012.4
20260905110406 56 340 7.0 22.6 0.00 0.00 0.00 87 1012.3
20260905105906 56 337 10.4 21.7 0.00 0.00 0.00 87 1012.3
20260905105406 56 341 10.4 17.4 0.00 0.00 0.00 87 1012.4
20260905104910 56 329 10.4 18.2 0.00 0.00 0.00 87 1012.2
20260905104406 56 344 7.8 20.0 0.00 0.00 0.00 87 1012.2
20260905103406 55 336 7.8 21.7 0.00 0.00 0.00 87 1012.2
20260905102907 55 312 7.0 17.4 0.00 0.00 0.00 87 1012.4
20260905102407 55 341 8.7 20.9 0.00 0.00 0.00 87 1012.5
20260905101907 55 333 8.7 20.0 0.00 0.00 0.00 87 1012.4
20260905101406 55 321 7.8 15.6 0.00 0.00 0.00 87 1012.4
20260905100906 55 308 7.0 21.7 0.00 0.00 0.00 87 1012.4
20260905100406 55 334 8.7 17.4 0.00 0.00 0.00 87 1012.4
20260905095906 55 322 4.3 12.2 0.00 0.00 0.00 86 1012.4
20260905094906 56 228 5.2 13.0 0.00 0.00 0.00 85 1012.4
20260905093906 56 317 6.1 14.8 0.00 0.00 0.00 85 1012.2
20260905093406 55 243 7.8 13.9 0.00 0.00 0.00 85 1012.2
20260905092906 55 283 7.8 17.4 0.00 0.00 0.00 85 1012.2
20260905092406 56 264 7.8 14.8 0.00 0.00 0.00 85 1012.4
20260905091910 55 279 6.1 17.4 0.00 0.00 0.00 85 1012.4
20260905091407 55 311 7.8 20.0 0.00 0.00 0.00 85 1012.5
20260905090906 56 242 7.0 13.9 0.00 0.00 0.00 85 1012.5
20260905090406 56 333 6.1 19.1 0.00 0.00 0.00 85 1012.6
20260905085908 56 297 5.2 15.6 0.00 0.00 0.00 85 1012.5
20260905085407 56 290 4.3 14.8 0.00 0.00 0.00 85 1012.4
20260905084906 56 344 5.2 14.8 0.00 0.00 0.00 85 1012.3
20260905084410 55 237 7.0 20.0 0.00 0.00 0.00 85 1012.1
20260905083408 55 279 7.8 17.4 0.00 0.00 0.00 85 1011.8
20260905082906 55 277 8.7 20.0 0.00 0.00 0.00 84 1011.9
20260905082407 55 310 9.6 22.6 0.00 0.00 0.00 84 1012.0
20260905081908 55 320 9.6 20.0 0.00 0.00 0.00 84 1012.0
20260905081407 56 312 8.7 21.7 0.00 0.00 0.00 84 1011.9
20260905080907 56 318 8.7 22.6 0.00 0.00 0.00 83 1012.0
20260905080406 55 322 10.4 18.2 0.00 0.00 0.00 83 1012.0
20260905075906 55 309 7.8 19.1 0.00 0.00 0.00 83 1012.0
20260905075407 55 323 9.6 21.7 0.00 0.00 0.00 84 1012.0
20260905074906 55 325 8.7 19.1 0.00 0.00 0.00 84 1012.0
20260905074406 56 334 8.7 18.2 0.00 0.00 0.00 85 1012.1
20260905073906 55 327 10.4 20.9 0.00 0.00 0.00 85 1012.0
20260905073406 55 349 6.1 18.2 0.00 0.00 0.00 85 1012.0
20260905072906 55 335 7.8 17.4 0.00 0.00 0.00 85 1011.9
20260905072406 55 339 6.1 19.1 0.00 0.00 0.00 85 1011.9
20260905071907 55 331 7.8 18.2 0.00 0.00 0.00 85 1011.9
20260905071406 55 311 7.8 18.2 0.00 0.00 0.00 86 1011.9
20260905070906 55 252 7.0 17.4 0.00 0.00 0.00 86 1011.9
20260905070406 55 228 7.8 19.1 0.00 0.00 0.00 86 1011.8
20260905065907 55 231 7.8 20.9 0.00 0.00 0.00 86 1011.8
20260905065407 55 319 5.2 22.6 0.00 0.00 0.00 86 1011.8
20260905064906 55 332 5.2 17.4 0.00 0.00 0.00 86 1011.8
20260905064406 55 320 5.2 18.2 0.00 0.00 0.00 86 1011.8
20260905063906 55 344 9.6 22.6 0.00 0.00 0.00 86 1011.8
20260905062906 55 306 7.0 17.4 0.00 0.00 0.00 86 1011.7
20260905062407 55 344 6.1 20.9 0.00 0.00 0.00 86 1011.6
20260905061906 55 299 7.8 17.4 0.00 0.00 0.00 86 1011.4
20260905061406 55 228 8.7 20.9 0.00 0.00 0.00 86 1011.3
20260905060907 55 320 9.6 20.0 0.00 0.00 0.00 85 1011.4
20260905060406 55 343 10.4 24.3 0.00 0.00 0.00 85 1011.3
20260905055906 55 0 11.3 21.7 0.00 0.00 0.00 84 1011.3
20260905055406 56 316 12.2 21.7 0.00 0.00 0.00 84 1011.2
20260905054407 56 343 13.0 26.1 0.00 0.00 0.00 83 1011.3
20260905053906 56 343 9.6 22.6 0.00 0.00 0.00 82 1011.2
20260905053406 56 254 9.6 25.2 0.00 0.00 0.00 81 1011.1
20260905052906 56 330 11.3 25.2 0.00 0.00 0.00 80 1011.2
20260905052406 56 345 12.2 28.7 0.00 0.00 0.00 80 1011.3
20260905051407 56 340 11.3 22.6 0.00 0.00 0.00 81 1011.4
20260905050907 56 337 12.2 22.6 0.00 0.00 0.00 81 1011.7
20260905050406 56 340 12.2 21.7 0.00 0.00 0.00 82 1011.6
20260905045906 57 348 9.6 22.6 0.00 0.00 0.00 83 1011.7
20260905045407 57 326 12.2 19.1 0.00 0.00 0.00 82 1011.9
20260905044906 57 334 10.4 22.6 0.00 0.00 0.00 82 1012.0
20260905043406 57 323 10.4 22.6 0.00 0.00 0.00 82 1012.1
20260905042906 57 347 11.3 17.4 0.00 0.00 0.00 82 1012.1
20260905042407 57 346 11.3 21.7 0.00 0.00 0.00 82 1012.1
20260905041907 57 335 7.8 19.1 0.00 0.00 0.00 82 1012.1
20260905041407 57 351 11.3 24.3 0.00 0.00 0.00 82 1012.1
20260905035906 57 340 10.4 26.1 0.00 0.00 0.00 81 1012.3
20260905035407 57 334 10.4 22.6 0.00 0.00 0.00 82 1012.3
20260905034907 57 344 10.4 20.0 0.00 0.00 0.00 80 1012.4
20260905034406 57 348 13.9 20.9 0.00 0.00 0.00 79 1012.4
20260905033406 58 346 12.2 30.4 0.00 0.00 0.00 80 1012.7
20260905032906 58 329 7.8 20.9 0.00 0.00 0.00 80 1012.9
20260905032406 58 342 7.8 19.1 0.00 0.00 0.00 80 1012.9
20260905031907 57 336 6.1 17.4 0.00 0.00 0.00 80 1012.9
20260905031406 57 352 7.8 15.6 0.00 0.00 0.00 80 1012.9
20260905030906 58 337 10.4 19.1 0.00 0.00 0.00 79 1012.9
20260905030406 58 323 11.3 19.1 0.00 0.00 0.00 78 1012.9
20260905025906 58 325 7.8 19.1 0.00 0.00 0.00 79 1012.9
20260905025406 58 325 10.4 17.4 0.00 0.00 0.00 78 1013.0
20260905024907 58 308 8.7 18.2 0.00 0.00 0.00 78 1012.9
20260905023907 58 326 10.4 22.6 0.00 0.00 0.00 79 1013.2
20260905023406 58 311 9.6 19.1 0.00 0.00 0.00 79 1013.2
20260905022906 58 325 8.7 20.0 0.00 0.00 0.00 80 1013.3
20260905022406 57 332 7.8 17.4 0.00 0.00 0.00 81 1013.3
20260905021906 57 303 6.1 19.1 0.00 0.00 0.00 82 1013.3
20260905021406 56 319 9.6 20.9 0.00 0.00 0.00 81 1013.3
20260905020906 56 313 9.6 17.4 0.00 0.00 0.00 82 1013.3
20260905020406 56 334 7.8 17.4 0.00 0.00 0.00 83 1013.4
20260905015906 55 338 6.1 15.6 0.00 0.00 0.00 83 1013.4
20260905015406 56 344 7.0 20.0 0.00 0.00 0.00 84 1013.5
20260905014906 56 311 6.1 15.6 0.00 0.00 0.00 85 1013.6
20260905014406 55 324 7.8 18.2 0.00 0.00 0.00 85 1013.8
20260905013406 55 297 7.0 20.9 0.00 0.00 0.00 83 1014.0
20260905012906 55 341 8.7 22.6 0.00 0.00 0.00 83 1014.2
20260905011406 55 329 5.2 22.6 0.00 0.00 0.00 84 1014.2
20260905010907 55 292 8.7 17.4 0.00 0.00 0.00 86 1014.3
20260905010407 55 319 4.3 13.9 0.00 0.00 0.00 86 1014.4
20260905005906 55 314 1.7 8.7 0.00 0.00 0.00 87 1014.5
20260905005406 54 301 2.6 10.4 0.00 0.00 0.00 87 1014.6
20260905004906 54 322 5.2 13.9 0.00 0.00 0.00 87 1014.7
20260905004407 54 267 5.2 13.9 0.00 0.00 0.00 87 1014.8
20260905003907 54 314 4.3 12.2 0.00 0.00 0.00 87 1014.9
20260905003407 54 256 5.2 13.0 0.00 0.00 0.00 87 1015.0
20260905002907 54 251 5.2 13.9 0.00 0.00 0.00 87 1015.1
20260905002406 54 310 4.3 14.8 0.00 0.00 0.00 87 1015.4
20260905001906 54 242 7.0 17.4 0.00 0.00 0.00 87 1015.4
20260905001406 54 325 6.1 18.2 0.00 0.00 0.00 86 1015.5
20260905000907 54 346 10.4 19.1 0.00 0.00 0.00 85 1015.4
20260905000407 55 296 4.3 10.4 0.00 0.00 0.00 85 1015.3
20260904235407 55 346 7.0 13.9 0.00 0.00 0.00 84 1015.5
20260904234906 55 345 7.0 13.0 0.00 0.00 0.00 84 1015.5
20260904234406 55 349 7.8 13.9 0.00 0.00 0.00 85 1015.4
20260904233906 55 343 5.2 12.2 0.00 0.00 0.00 86 1015.4
20260904233406 55 343 5.2 13.0 0.00 0.00 0.00 86 1015.5
20260904232906 55 341 6.1 12.2 0.00 0.00 0.00 87 1015.6
20260904232406 54 324 5.2 11.3 0.00 0.00 0.00 87 1015.6
20260904231906 53 303 6.1 13.0 0.00 0.00 0.00 87 1015.8
20260904231406 53 347 5.2 11.3 0.00 0.00 0.00 87 1015.9
20260904230906 53 315 3.5 13.9 0.00 0.00 0.00 87 1015.8
20260904230406 53 341 2.6 10.4 0.00 0.00 0.00 87 1015.9
20260904225906 52 321 4.3 11.3 0.00 0.00 0.00 87 1015.9
20260904225406 52 269 4.3 13.0 0.00 0.00 0.00 87 1015.9
20260904224906 52 211 4.3 11.3 0.00 0.00 0.00 86 1016.0
20260904224407 53 237 5.2 13.0 0.00 0.00 0.00 86 1016.1
20260904223907 53 245 2.6 7.8 0.00 0.00 0.00 85 1016.1
20260904222906 54 234 4.3 12.2 0.00 0.00 0.00 83 1016.0
20260904221906 56 346 7.0 13.9 0.00 0.00 0.00 78 1015.8
20260904221407 57 346 5.2 14.8 0.00 0.00 0.00 78 1015.7
20260904220906 57 315 5.2 12.2 0.00 0.00 0.00 79 1015.6
20260904220406 57 328 5.2 13.9 0.00 0.00 0.00 80 1015.7
20260904215906 57 353 7.0 13.0 0.00 0.00 0.00 80 1015.6
20260904215407 57 325 6.1 13.0 0.00 0.00 0.00 79 1015.7
20260904214406 56 343 7.0 12.2 0.00 0.00 0.00 79 1015.7
20260904213906 56 330 4.3 10.4 0.00 0.00 0.00 80 1015.6
20260904213406 55 321 4.3 13.0 0.00 0.00 0.00 80 1015.7
20260904212406 55 315 2.6 8.7 0.00 0.00 0.00 83 1015.7
20260904211907 54 258 2.6 8.7 0.00 0.00 0.00 83 1015.8
20260904211406 54 313 3.5 10.4 0.00 0.00 0.00 84 1015.9
20260904210906 53 237 0.9 4.3 0.00 0.00 0.00 84 1015.9
20260904210406 53 221 1.7 6.1 0.00 0.00 0.00 84 1015.9
20260904205906 53 209 1.7 5.2 0.00 0.00 0.00 83 1016.0
20260904205406 53 209 1.7 6.1 0.00 0.00 0.00 82 1016.0
20260904204906 53 279 2.6 8.7 0.00 0.00 0.00 82 1016.0
20260904204405 54 201 1.7 7.8 0.00 0.00 0.00 81 1015.9
20260904203906 54 151 2.6 6.1 0.00 0.00 0.00 81 1015.9
20260904202906 53 204 2.6 6.1 0.00 0.00 0.00 81 1015.9
20260904202406 53 217 1.7 5.2 0.00 0.00 0.00 81 1015.9
20260904201406 53 228 0.9 5.2 0.00 0.00 0.00 81 1015.9
20260904200906 53 278 1.7 5.2 0.00 0.00 0.00 81 1015.8
20260904200406 52 253 1.7 4.3 0.00 0.00 0.00 81 1015.8
20260904195906 52 227 1.7 2.6 0.00 0.00 0.00 81 1015.7
20260904195406 52 231 0.9 2.6 0.00 0.00 0.00 81 1015.7
20260904194405 52 299 0.9 4.3 0.00 0.00 0.00 81 1015.5
20260904193906 52 270 0.9 2.6 0.00 0.00 0.00 81 1015.4
20260904193406 52 274 1.7 6.1 0.00 0.00 0.00 81 1015.4
20260904192906 51 343 2.6 5.2 0.00 0.00 0.00 81 1015.3
20260904191906 51 353 1.7 6.1 0.00 0.00 0.00 81 1015.3
20260904191406 51 327 2.6 4.3 0.00 0.00 0.00 81 1015.0
20260904190906 51 320 2.6 5.2 0.00 0.00 0.00 81 1014.9
20260904190406 50 249 1.7 4.3 0.00 0.00 0.00 81 1014.9
20260904185905 50 241 0.9 2.6 0.00 0.00 0.00 81 1014.9